,,,PA_Meas_PMT16A,,PR_Meas_QMR101_102,,RH_Meas_QMH101,,SR_Meas_QMS101,,TA_Meas_QMH101,,GenWind,,GenWind,
date,time,status,PA,status,PR,status,RH,status,SR,status,TA,status,DirAvg,status,SpdAvg,
2009-12-04, 00:00:05,VALID,1002.77,VALID,0,VALID,83.4065,VALID,0,VALID,25.9038,VALID,356,VALID,1.02305,
2009-12-04, 00:01:05,VALID,1002.77,VALID,0,VALID,83.3989,VALID,0,VALID,25.9427,VALID,355,VALID,0.739062,
2009-12-04, 00:02:05,VALID,1002.77,VALID,0,VALID,83.2235,VALID,0,VALID,25.9427,VALID,348,VALID,1.08828,
2009-12-04, 00:03:05,VALID,1002.79,VALID,0,VALID,83.2387,VALID,0,VALID,25.9622,VALID,359,VALID,0.938672,
2009-12-04, 00:04:05,VALID,1002.79,VALID,0,VALID,82.9336,VALID,0,VALID,25.9817,VALID,350,VALID,0.862891,
2009-12-04, 00:05:05,VALID,1002.82,VALID,0,VALID,82.7962,VALID,0,VALID,25.9797,VALID,341,VALID,0.758594,
2009-12-04, 00:06:05,VALID,1002.82,VALID,0,VALID,82.6208,VALID,0,VALID,26.0401,VALID,351,VALID,1.09414,
2009-12-04, 00:07:05,VALID,1002.82,VALID,0,VALID,82.7123,VALID,0,VALID,26.0596,VALID,357,VALID,0.748438,
2009-12-04, 00:08:05,VALID,1002.81,VALID,0,VALID,82.575,VALID,0,VALID,26.081,VALID,3,VALID,1.15234,
2009-12-04, 00:09:05,VALID,1002.79,VALID,0,VALID,82.7962,VALID,0,VALID,26.081,VALID,345,VALID,0.653125,
2009-12-04, 00:10:05,VALID,1002.76,VALID,0,VALID,82.781,VALID,0,VALID,26.0421,VALID,354,VALID,0.808594,
2009-12-04, 00:11:05,VALID,1002.75,VALID,0,VALID,82.9183,VALID,0,VALID,26.0206,VALID,340,VALID,0.676562,
2009-12-04, 00:12:05,VALID,1002.73,VALID,0,VALID,82.9259,VALID,0,VALID,26.0226,VALID,353,VALID,0.849609,
2009-12-04, 00:13:05,VALID,1002.74,VALID,0,VALID,82.9336,VALID,0,VALID,26.0226,VALID,358,VALID,0.932031,
2009-12-04, 00:14:05,VALID,1002.78,VALID,0,VALID,83.0861,VALID,0,VALID,25.9622,VALID,11,VALID,0.871094,
2009-12-04, 00:15:05,VALID,1002.78,VALID,0,VALID,82.9641,VALID,0,VALID,25.9622,VALID,360,VALID,0.844531,
2009-12-04, 00:16:05,VALID,1002.74,VALID,0,VALID,82.9183,VALID,0,VALID,25.9622,VALID,351,VALID,1.44297,
2009-12-04, 00:17:05,VALID,1002.74,VALID,0,VALID,82.8649,VALID,0,VALID,25.9817,VALID,343,VALID,1.27422,
2009-12-04, 00:18:05,VALID,1002.74,VALID,0,VALID,82.6665,VALID,0,VALID,26.0012,VALID,355,VALID,1.1418,
2009-12-04, 00:19:05,VALID,1002.74,VALID,0,VALID,82.7657,VALID,0,VALID,26.0226,VALID,310,VALID,0.766016,
2009-12-04, 00:20:05,VALID,1002.74,VALID,0,VALID,82.6437,VALID,0,VALID,26.0206,VALID,340,VALID,0.852344,
2009-12-04, 00:21:05,VALID,1002.75,VALID,0,VALID,82.6665,VALID,0,VALID,26.0012,VALID,354,VALID,0.939844,
2009-12-04, 00:22:05,VALID,1002.72,VALID,0,VALID,82.7657,VALID,0,VALID,26.0206,VALID,351,VALID,1.10859,
2009-12-04, 00:23:05,VALID,1002.71,VALID,0,VALID,82.6971,VALID,0,VALID,26.0226,VALID,332,VALID,0.998438,
2009-12-04, 00:24:05,VALID,1002.71,VALID,0,VALID,82.6818,VALID,0,VALID,26.0012,VALID,336,VALID,1.37383,
2009-12-04, 00:25:05,VALID,1002.67,VALID,0,VALID,82.7428,VALID,0,VALID,26.0206,VALID,333,VALID,0.822656,
2009-12-04, 00:26:05,VALID,1002.62,VALID,0,VALID,82.8268,VALID,0,VALID,26.0012,VALID,352,VALID,0.491016,
2009-12-04, 00:27:05,VALID,1002.57,VALID,0,VALID,82.8725,VALID,0,VALID,25.9817,VALID,330,VALID,0.772656,
2009-12-04, 00:28:05,VALID,1002.52,VALID,0,VALID,82.9564,VALID,0,VALID,25.9797,VALID,354,VALID,0.720703,
2009-12-04, 00:29:05,VALID,1002.49,VALID,0,VALID,82.8649,VALID,0.100563,VALID,25.9817,VALID,337,VALID,0.799609,
2009-12-04, 00:30:05,VALID,1002.39,VALID,0,VALID,82.6818,VALID,0,VALID,25.9797,VALID,294,VALID,0.696875,
2009-12-04, 00:31:05,VALID,1002.39,VALID,0,VALID,82.5903,VALID,0,VALID,26.0012,VALID,328,VALID,0.782422,
2009-12-04, 00:32:05,VALID,1002.35,VALID,0,VALID,82.7352,VALID,0,VALID,26.0226,VALID,329,VALID,0.278516,
2009-12-04, 00:33:05,VALID,1002.31,VALID,0,VALID,82.7352,VALID,0,VALID,25.9602,VALID,329,VALID,0.497266,
2009-12-04, 00:34:05,VALID,1002.27,VALID,0,VALID,82.6208,VALID,0,VALID,25.9427,VALID,335,VALID,1.05586,
2009-12-04, 00:35:05,VALID,1002.27,VALID,0,VALID,82.6665,VALID,0,VALID,25.9408,VALID,355,VALID,0.7625,
2009-12-04, 00:36:05,VALID,1002.24,VALID,0,VALID,82.8191,VALID,0,VALID,25.9427,VALID,342,VALID,0.6125,
2009-12-04, 00:37:05,VALID,1002.19,VALID,0,VALID,82.7505,VALID,0,VALID,25.9018,VALID,358,VALID,0.875,
2009-12-04, 00:38:05,VALID,1002.15,VALID,0,VALID,82.7734,VALID,0,VALID,25.9018,VALID,352,VALID,1.17422,
2009-12-04, 00:39:05,VALID,1002.13,VALID,0,VALID,82.8496,VALID,0.100563,VALID,25.9038,VALID,354,VALID,1.38398,
2009-12-04, 00:40:05,VALID,1002.12,VALID,0,VALID,83.0404,VALID,0,VALID,25.8843,VALID,357,VALID,0.767187,
2009-12-04, 00:41:05,VALID,1002.12,VALID,0,VALID,83.1624,VALID,0,VALID,25.8648,VALID,322,VALID,0.461719,
2009-12-04, 00:42:05,VALID,1002.1,VALID,0,VALID,83.1701,VALID,0.100563,VALID,25.8648,VALID,29,VALID,0.473437,
2009-12-04, 00:43:05,VALID,1002.1,VALID,0,VALID,83.2921,VALID,0,VALID,25.8278,VALID,352,VALID,1.14336,
2009-12-04, 00:44:04,VALID,1002.11,VALID,0,VALID,83.2845,VALID,0,VALID,25.8278,VALID,337,VALID,0.416016,
2009-12-04, 00:45:04,VALID,1002.13,VALID,0,VALID,83.4294,VALID,0,VALID,25.7869,VALID,348,VALID,0.583203,
2009-12-04, 00:46:04,VALID,1002.16,VALID,0,VALID,83.5439,VALID,0,VALID,25.8083,VALID,347,VALID,0.177344,
2009-12-04, 00:47:04,VALID,1002.19,VALID,0,VALID,83.3913,VALID,0,VALID,25.8064,VALID,326,VALID,1.27891,
2009-12-04, 00:48:04,VALID,1002.16,VALID,0,VALID,83.3989,VALID,0,VALID,25.8259,VALID,300,VALID,0.3625,
2009-12-04, 00:49:04,VALID,1002.18,VALID,0,VALID,83.315,VALID,0,VALID,25.8453,VALID,282,VALID,0.365625,
2009-12-04, 00:50:04,VALID,1002.18,VALID,0,VALID,83.4981,VALID,0,VALID,25.8473,VALID,307,VALID,0.000390625,
2009-12-04, 00:51:04,VALID,1002.15,VALID,0,VALID,83.5057,VALID,0,VALID,25.8278,VALID,2,VALID,0.325,
2009-12-04, 00:52:04,VALID,1002.16,VALID,0,VALID,83.5896,VALID,0,VALID,25.7655,VALID,342,VALID,0.860547,
2009-12-04, 00:53:04,VALID,1002.11,VALID,0,VALID,83.5591,VALID,0,VALID,25.7869,VALID,347,VALID,1.06992,
2009-12-04, 00:54:04,VALID,1002.1,VALID,0,VALID,83.7117,VALID,0,VALID,25.7694,VALID,336,VALID,1.01563,
2009-12-04, 00:55:04,VALID,1002.12,VALID,0,VALID,83.7041,VALID,0,VALID,25.7499,VALID,303,VALID,0.555859,
2009-12-04, 00:56:04,VALID,1002.1,VALID,0,VALID,83.788,VALID,0,VALID,25.7304,VALID,354,VALID,1.05469,
2009-12-04, 00:57:04,VALID,1002.08,VALID,0,VALID,83.9711,VALID,0,VALID,25.7109,VALID,349,VALID,0.734375,
2009-12-04, 00:58:04,VALID,1002.08,VALID,0,VALID,83.9329,VALID,0,VALID,25.6895,VALID,359,VALID,1.16914,
2009-12-04, 00:59:04,VALID,1002.12,VALID,0,VALID,84.0169,VALID,0,VALID,25.6895,VALID,325,VALID,0.974219,
2009-12-04, 01:00:04,VALID,1002.11,VALID,0,VALID,84.2381,VALID,0,VALID,25.6506,VALID,356,VALID,0.383594,
2009-12-04, 01:01:04,VALID,1002.12,VALID,0,VALID,84.2839,VALID,0,VALID,25.6525,VALID,349,VALID,0.266406,
2009-12-04, 01:02:04,VALID,1002.11,VALID,0,VALID,84.3602,VALID,0,VALID,25.6116,VALID,349,VALID,0.903906,
2009-12-04, 01:03:04,VALID,1002.08,VALID,0,VALID,84.5738,VALID,0,VALID,25.6136,VALID,335,VALID,0.748047,
2009-12-04, 01:04:04,VALID,1002.08,VALID,0,VALID,84.6195,VALID,0,VALID,25.6136,VALID,356,VALID,0.543359,
2009-12-04, 01:05:04,VALID,1002.06,VALID,0,VALID,84.6348,VALID,0,VALID,25.5921,VALID,324,VALID,1.06836,
2009-12-04, 01:06:04,VALID,1002.04,VALID,0,VALID,84.8026,VALID,0,VALID,25.5921,VALID,1,VALID,0.801562,
2009-12-04, 01:07:04,VALID,1002.04,VALID,0,VALID,84.6882,VALID,0,VALID,25.5727,VALID,331,VALID,1.09805,
2009-12-04, 01:08:04,VALID,1002.03,VALID,0,VALID,84.7492,VALID,0,VALID,25.6136,VALID,343,VALID,1.00039,
2009-12-04, 01:09:04,VALID,1002.01,VALID,0,VALID,84.6806,VALID,0,VALID,25.633,VALID,344,VALID,0.915625,
2009-12-04, 01:10:04,VALID,1002.01,VALID,0,VALID,84.6653,VALID,0,VALID,25.6311,VALID,358,VALID,1.53125,
2009-12-04, 01:11:04,VALID,1001.99,VALID,0,VALID,84.734,VALID,0,VALID,25.6506,VALID,352,VALID,0.511719,
2009-12-04, 01:12:04,VALID,1002,VALID,0,VALID,84.5967,VALID,0,VALID,25.6915,VALID,345,VALID,0.740234,
2009-12-04, 01:13:04,VALID,1002.01,VALID,0,VALID,84.4899,VALID,0,VALID,25.709,VALID,340,VALID,1.05234,
2009-12-04, 01:14:04,VALID,1002,VALID,0,VALID,84.4288,VALID,0,VALID,25.7285,VALID,350,VALID,1.30391,
2009-12-04, 01:15:04,VALID,1001.98,VALID,0,VALID,84.3983,VALID,0,VALID,25.7674,VALID,354,VALID,0.949219,
2009-12-04, 01:16:04,VALID,1002.01,VALID,0,VALID,84.4364,VALID,0,VALID,25.7674,VALID,349,VALID,0.924219,
2009-12-04, 01:17:04,VALID,1002.02,VALID,0,VALID,84.4059,VALID,0,VALID,25.7869,VALID,4,VALID,0.910156,
2009-12-04, 01:18:04,VALID,1002,VALID,0,VALID,84.3144,VALID,0,VALID,25.8064,VALID,343,VALID,0.933984,
2009-12-04, 01:19:04,VALID,1002.06,VALID,0,VALID,84.2076,VALID,0,VALID,25.8259,VALID,354,VALID,0.769141,
2009-12-04, 01:20:04,VALID,1002.03,VALID,0,VALID,84.1847,VALID,0,VALID,25.8648,VALID,289,VALID,0.455469,
2009-12-04, 01:21:04,VALID,1002.07,VALID,0,VALID,84.2152,VALID,0,VALID,25.8259,VALID,1,VALID,0.65,
2009-12-04, 01:22:04,VALID,1002.07,VALID,0,VALID,84.2839,VALID,0,VALID,25.8473,VALID,350,VALID,1.00859,
2009-12-04, 01:23:04,VALID,1002.06,VALID,0,VALID,84.4212,VALID,0,VALID,25.8259,VALID,352,VALID,1.18398,
2009-12-04, 01:24:04,VALID,1002.02,VALID,0,VALID,84.3907,VALID,0,VALID,25.8064,VALID,347,VALID,0.619922,
2009-12-04, 01:25:04,VALID,1001.97,VALID,0,VALID,84.3907,VALID,0,VALID,25.8064,VALID,332,VALID,1.30625,
2009-12-04, 01:26:04,VALID,1001.96,VALID,0,VALID,84.5661,VALID,0,VALID,25.8064,VALID,8,VALID,0.814844,
2009-12-04, 01:27:04,VALID,1001.9,VALID,0,VALID,84.6729,VALID,0,VALID,25.8083,VALID,355,VALID,0.582422,
2009-12-04, 01:28:04,VALID,1001.88,VALID,0,VALID,84.7645,VALID,0,VALID,25.7674,VALID,344,VALID,0.903906,
2009-12-04, 01:29:04,VALID,1001.87,VALID,0,VALID,84.9781,VALID,0,VALID,25.748,VALID,350,VALID,0.943359,
2009-12-04, 01:30:04,VALID,1001.89,VALID,0,VALID,85.1078,VALID,0,VALID,25.7071,VALID,348,VALID,0.933984,
2009-12-04, 01:31:04,VALID,1001.87,VALID,0,VALID,85.2146,VALID,0,VALID,25.709,VALID,348,VALID,0.817969,
2009-12-04, 01:32:04,VALID,1001.85,VALID,0,VALID,85.3672,VALID,0,VALID,25.6895,VALID,340,VALID,0.919141,
2009-12-04, 01:33:04,VALID,1001.88,VALID,0,VALID,85.4435,VALID,0,VALID,25.67,VALID,352,VALID,0.886719,
2009-12-04, 01:34:04,VALID,1001.87,VALID,0,VALID,85.4511,VALID,0,VALID,25.67,VALID,331,VALID,0.910156,
2009-12-04, 01:35:04,VALID,1001.87,VALID,0,VALID,85.4892,VALID,0,VALID,25.6915,VALID,354,VALID,0.932031,
2009-12-04, 01:36:04,VALID,1001.85,VALID,0,VALID,85.5426,VALID,0,VALID,25.6506,VALID,346,VALID,0.979688,
2009-12-04, 01:37:04,VALID,1001.85,VALID,0,VALID,85.5655,VALID,0,VALID,25.6311,VALID,352,VALID,1.13594,
2009-12-04, 01:38:04,VALID,1001.85,VALID,0,VALID,85.741,VALID,0,VALID,25.6311,VALID,352,VALID,0.879297,
2009-12-04, 01:39:04,VALID,1001.85,VALID,0,VALID,85.8325,VALID,0,VALID,25.6525,VALID,352,VALID,1.2668,
2009-12-04, 01:40:04,VALID,1001.82,VALID,0,VALID,86.0233,VALID,0,VALID,25.633,VALID,344,VALID,0.773828,
2009-12-04, 01:41:04,VALID,1001.81,VALID,0,VALID,86.2292,VALID,0,VALID,25.6136,VALID,319,VALID,1.11875,
2009-12-04, 01:42:04,VALID,1001.81,VALID,0,VALID,86.336,VALID,0,VALID,25.5921,VALID,332,VALID,1.14297,
2009-12-04, 01:43:04,VALID,1001.77,VALID,0,VALID,86.2445,VALID,0,VALID,25.5921,VALID,333,VALID,1.30938,
2009-12-04, 01:44:04,VALID,1001.79,VALID,0,VALID,86.3284,VALID,0,VALID,25.5921,VALID,23,VALID,0.416406,
2009-12-04, 01:45:04,VALID,1001.77,VALID,0,VALID,86.5115,VALID,0,VALID,25.5921,VALID,354,VALID,0.753906,
2009-12-04, 01:46:04,VALID,1001.74,VALID,0,VALID,86.6946,VALID,0,VALID,25.633,VALID,350,VALID,0.921484,
2009-12-04, 01:47:04,VALID,1001.71,VALID,0,VALID,86.7404,VALID,0,VALID,25.6525,VALID,345,VALID,0.976172,
2009-12-04, 01:48:04,VALID,1001.7,VALID,0,VALID,86.6488,VALID,0,VALID,25.6895,VALID,357,VALID,0.577734,
2009-12-04, 01:49:04,VALID,1001.72,VALID,0,VALID,86.7633,VALID,0,VALID,25.6895,VALID,343,VALID,1.04492,
2009-12-04, 01:50:04,VALID,1001.69,VALID,0,VALID,86.7938,VALID,0,VALID,25.709,VALID,349,VALID,1.35586,
2009-12-04, 01:51:04,VALID,1001.69,VALID,0,VALID,86.8472,VALID,0,VALID,25.7285,VALID,303,VALID,1.20625,
2009-12-04, 01:52:04,VALID,1001.7,VALID,0,VALID,86.8319,VALID,0,VALID,25.7499,VALID,350,VALID,1.18438,
2009-12-04, 01:53:04,VALID,1001.67,VALID,0,VALID,86.809,VALID,0,VALID,25.748,VALID,321,VALID,1.23594,
2009-12-04, 01:54:04,VALID,1001.7,VALID,0,VALID,86.7022,VALID,0,VALID,25.7889,VALID,353,VALID,0.774219,
2009-12-04, 01:55:04,VALID,1001.7,VALID,0,VALID,86.6259,VALID,0,VALID,25.7674,VALID,345,VALID,1.0332,
2009-12-04, 01:56:04,VALID,1001.7,VALID,0,VALID,86.6031,VALID,0,VALID,25.748,VALID,335,VALID,0.989844,
2009-12-04, 01:57:04,VALID,1001.72,VALID,0,VALID,86.6336,VALID,0,VALID,25.7499,VALID,353,VALID,1.22773,
2009-12-04, 01:58:04,VALID,1001.76,VALID,0,VALID,86.6717,VALID,0,VALID,25.6895,VALID,351,VALID,0.380859,
2009-12-04, 01:59:04,VALID,1001.78,VALID,0,VALID,86.7633,VALID,0,VALID,25.6895,VALID,268,VALID,0.375391,
2009-12-04, 02:00:04,VALID,1001.79,VALID,0,VALID,86.809,VALID,0,VALID,25.6506,VALID,331,VALID,0.405078,
2009-12-04, 02:01:04,VALID,1001.79,VALID,0,VALID,86.8624,VALID,0,VALID,25.6525,VALID,341,VALID,0.857031,
2009-12-04, 02:02:04,VALID,1001.76,VALID,0,VALID,86.8624,VALID,0,VALID,25.6525,VALID,354,VALID,1.32422,
2009-12-04, 02:03:04,VALID,1001.77,VALID,0,VALID,86.8624,VALID,0.100563,VALID,25.6136,VALID,356,VALID,0.797266,
2009-12-04, 02:04:04,VALID,1001.74,VALID,0,VALID,86.9006,VALID,0,VALID,25.5941,VALID,332,VALID,0.673828,
2009-12-04, 02:05:04,VALID,1001.72,VALID,0,VALID,86.9845,VALID,0,VALID,25.5551,VALID,264,VALID,0.169141,
2009-12-04, 02:06:04,VALID,1001.68,VALID,0,VALID,87.0837,VALID,0,VALID,25.5337,VALID,275,VALID,0.503906,
2009-12-04, 02:07:04,VALID,1001.7,VALID,0,VALID,87.0913,VALID,0,VALID,25.5142,VALID,301,VALID,0.944922,
2009-12-04, 02:08:04,VALID,1001.68,VALID,0,VALID,87.1371,VALID,0,VALID,25.5142,VALID,282,VALID,0.483594,
2009-12-04, 02:09:04,VALID,1001.7,VALID,0,VALID,87.2362,VALID,0,VALID,25.5142,VALID,310,VALID,0.367188,
2009-12-04, 02:10:04,VALID,1001.72,VALID,0,VALID,87.3125,VALID,0,VALID,25.5162,VALID,312,VALID,0.218359,
2009-12-04, 02:11:04,VALID,1001.7,VALID,0,VALID,87.5033,VALID,0,VALID,25.4772,VALID,299,VALID,0.778906,
2009-12-04, 02:12:04,VALID,1001.72,VALID,0,VALID,87.6635,VALID,0,VALID,25.4577,VALID,287,VALID,1.40313,
2009-12-04, 02:13:04,VALID,1001.73,VALID,0,VALID,87.6406,VALID,0,VALID,25.4363,VALID,293,VALID,1.23867,
2009-12-04, 02:14:04,VALID,1001.71,VALID,0,VALID,87.549,VALID,0,VALID,25.4577,VALID,300,VALID,1.05352,
2009-12-04, 02:15:04,VALID,1001.69,VALID,0,VALID,87.549,VALID,0,VALID,25.4169,VALID,305,VALID,0.277734,
2009-12-04, 02:16:04,VALID,1001.67,VALID,0,VALID,87.7474,VALID,0,VALID,25.4188,VALID,345,VALID,0.23125,
2009-12-04, 02:17:04,VALID,1001.67,VALID,0,VALID,87.8923,VALID,0,VALID,25.3798,VALID,353,VALID,0.63125,
2009-12-04, 02:18:04,VALID,1001.67,VALID,0,VALID,88.0449,VALID,0,VALID,25.3195,VALID,323,VALID,0.343359,
2009-12-04, 02:19:04,VALID,1001.63,VALID,0,VALID,88.1975,VALID,0,VALID,25.2806,VALID,323,VALID,0.00351562,
2009-12-04, 02:20:04,VALID,1001.63,VALID,0,VALID,88.3424,VALID,0,VALID,25.2611,VALID,323,VALID,0.235938,
2009-12-04, 02:21:04,VALID,1001.58,VALID,0,VALID,88.5179,VALID,0,VALID,25.263,VALID,332,VALID,0.449219,
2009-12-04, 02:22:04,VALID,1001.6,VALID,0,VALID,88.6628,VALID,0,VALID,25.2027,VALID,331,VALID,0.101953,
2009-12-04, 02:23:04,VALID,1001.61,VALID,0,VALID,88.8078,VALID,0,VALID,25.1832,VALID,331,VALID,0.189063,
2009-12-04, 02:24:04,VALID,1001.61,VALID,0,VALID,88.9604,VALID,0,VALID,25.1442,VALID,331,VALID,0.104687,
2009-12-04, 02:25:04,VALID,1001.59,VALID,0,VALID,89.2274,VALID,0,VALID,25.1442,VALID,328,VALID,0.492578,
2009-12-04, 02:26:04,VALID,1001.59,VALID,0,VALID,89.3037,VALID,0,VALID,25.1442,VALID,328,VALID,0,
2009-12-04, 02:27:04,VALID,1001.58,VALID,0,VALID,89.3647,VALID,0,VALID,25.1461,VALID,326,VALID,0,
2009-12-04, 02:28:04,VALID,1001.55,VALID,0,VALID,89.3266,VALID,0,VALID,25.1248,VALID,326,VALID,0,
2009-12-04, 02:29:04,VALID,1001.55,VALID,0,VALID,89.4868,VALID,0,VALID,25.1053,VALID,344,VALID,0.458203,
2009-12-04, 02:30:04,VALID,1001.56,VALID,0,VALID,89.7767,VALID,0,VALID,25.1053,VALID,336,VALID,0.692187,
2009-12-04, 02:31:04,VALID,1001.58,VALID,0,VALID,89.7385,VALID,0,VALID,25.1248,VALID,352,VALID,0.585938,
2009-12-04, 02:32:04,VALID,1001.6,VALID,0,VALID,89.6622,VALID,0,VALID,25.1442,VALID,350,VALID,0.140234,
2009-12-04, 02:33:04,VALID,1001.59,VALID,0,VALID,89.6775,VALID,0,VALID,25.1248,VALID,298,VALID,0.375781,
2009-12-04, 02:34:04,VALID,1001.6,VALID,0,VALID,89.6699,VALID,0,VALID,25.1267,VALID,298,VALID,0.359375,
2009-12-04, 02:35:04,VALID,1001.64,VALID,0,VALID,89.6699,VALID,0,VALID,25.0858,VALID,263,VALID,0.502344,
2009-12-04, 02:36:04,VALID,1001.63,VALID,0,VALID,89.7309,VALID,0,VALID,25.0682,VALID,262,VALID,0.0347656,
2009-12-04, 02:37:04,VALID,1001.67,VALID,0,VALID,89.9292,VALID,0,VALID,25.0293,VALID,262,VALID,0,
2009-12-04, 02:38:04,VALID,1001.67,VALID,0,VALID,90.036,VALID,0,VALID,25.0079,VALID,262,VALID,0,
2009-12-04, 02:39:04,VALID,1001.68,VALID,0,VALID,90.1276,VALID,0,VALID,24.969,VALID,262,VALID,0,
2009-12-04, 02:40:04,VALID,1001.65,VALID,0,VALID,90.4022,VALID,0,VALID,24.9495,VALID,292,VALID,1.00234,
2009-12-04, 02:41:04,VALID,1001.64,VALID,0,VALID,90.4251,VALID,0,VALID,25.0098,VALID,299,VALID,0.821094,
2009-12-04, 02:42:04,VALID,1001.65,VALID,0,VALID,90.3412,VALID,0,VALID,25.0274,VALID,302,VALID,0.602344,
2009-12-04, 02:43:04,VALID,1001.7,VALID,0,VALID,90.2802,VALID,0,VALID,25.0877,VALID,285,VALID,0.792578,
2009-12-04, 02:44:04,VALID,1001.73,VALID,0,VALID,90.1657,VALID,0,VALID,25.1053,VALID,299,VALID,1.14375,
2009-12-04, 02:45:04,VALID,1001.79,VALID,0,VALID,90.0055,VALID,0,VALID,25.1461,VALID,317,VALID,0.749609,
2009-12-04, 02:46:04,VALID,1001.83,VALID,0,VALID,89.8987,VALID,0,VALID,25.1637,VALID,319,VALID,0,
2009-12-04, 02:47:04,VALID,1001.84,VALID,0,VALID,89.8148,VALID,0,VALID,25.1832,VALID,320,VALID,0.204297,
2009-12-04, 02:48:04,VALID,1001.86,VALID,0,VALID,89.7919,VALID,0,VALID,25.1832,VALID,340,VALID,0.579297,
2009-12-04, 02:49:04,VALID,1001.91,VALID,0,VALID,89.7996,VALID,0,VALID,25.1832,VALID,340,VALID,0.274609,
2009-12-04, 02:50:04,VALID,1001.96,VALID,0,VALID,89.8224,VALID,0,VALID,25.1637,VALID,340,VALID,0,
2009-12-04, 02:51:04,VALID,1002,VALID,0,VALID,89.8911,VALID,0,VALID,25.1637,VALID,340,VALID,0,
2009-12-04, 02:52:04,VALID,1002.05,VALID,0,VALID,89.914,VALID,0,VALID,25.1851,VALID,340,VALID,0.142969,
2009-12-04, 02:53:04,VALID,1002.06,VALID,0,VALID,89.9064,VALID,0,VALID,25.1442,VALID,305,VALID,0.469141,
2009-12-04, 02:54:04,VALID,1002.03,VALID,0,VALID,89.9445,VALID,0,VALID,25.1656,VALID,297,VALID,0.00273437,
2009-12-04, 02:55:04,VALID,1001.95,VALID,0,VALID,89.9826,VALID,0,VALID,25.1442,VALID,342,VALID,0.739453,
2009-12-04, 02:56:04,VALID,1001.92,VALID,0,VALID,90.0818,VALID,0,VALID,25.1034,VALID,350,VALID,0.746875,
2009-12-04, 02:57:04,VALID,1001.88,VALID,0,VALID,90.2039,VALID,0,VALID,25.1072,VALID,356,VALID,0.838281,
2009-12-04, 02:58:04,VALID,1001.78,VALID,0,VALID,90.3336,VALID,0,VALID,25.0858,VALID,353,VALID,0.716016,
2009-12-04, 02:59:04,VALID,1001.78,VALID,0,VALID,90.3107,VALID,0,VALID,25.1053,VALID,353,VALID,1.4,
2009-12-04, 03:00:04,VALID,1001.78,VALID,0,VALID,90.1657,VALID,0,VALID,25.1442,VALID,348,VALID,0.834766,
2009-12-04, 03:01:04,VALID,1001.78,VALID,0,VALID,90.036,VALID,0,VALID,25.1442,VALID,322,VALID,0.541016,
2009-12-04, 03:02:04,VALID,1001.81,VALID,0,VALID,89.8758,VALID,0,VALID,25.2046,VALID,333,VALID,0.786719,
2009-12-04, 03:03:04,VALID,1001.86,VALID,0,VALID,89.7614,VALID,0,VALID,25.2027,VALID,306,VALID,0.750391,
2009-12-04, 03:04:04,VALID,1001.91,VALID,0,VALID,89.6393,VALID,0,VALID,25.2221,VALID,263,VALID,1.22227,
2009-12-04, 03:05:04,VALID,1001.94,VALID,0,VALID,89.38,VALID,0,VALID,25.2611,VALID,301,VALID,2.28008,
2009-12-04, 03:06:04,VALID,1001.93,VALID,0,VALID,89.0519,VALID,0,VALID,25.3,VALID,282,VALID,1.11367,
2009-12-04, 03:07:04,VALID,1001.94,VALID,0,VALID,88.9375,VALID,0,VALID,25.3584,VALID,273,VALID,1.13516,
2009-12-04, 03:08:04,VALID,1001.93,VALID,0,VALID,88.6781,VALID,0,VALID,25.4188,VALID,292,VALID,1.72344,
2009-12-04, 03:09:04,VALID,1001.91,VALID,0,VALID,88.5408,VALID,0,VALID,25.4169,VALID,310,VALID,0.713281,
2009-12-04, 03:10:04,VALID,1001.89,VALID,0,VALID,88.5255,VALID,0,VALID,25.4577,VALID,301,VALID,0.873828,
2009-12-04, 03:11:04,VALID,1001.9,VALID,0,VALID,88.6247,VALID,0,VALID,25.4363,VALID,298,VALID,1.27383,
2009-12-04, 03:12:04,VALID,1001.93,VALID,0,VALID,88.7544,VALID,0,VALID,25.4363,VALID,298,VALID,1.39609,
2009-12-04, 03:13:04,VALID,1001.91,VALID,0,VALID,88.8231,VALID,0,VALID,25.4169,VALID,12,VALID,0.648047,
2009-12-04, 03:14:04,VALID,1001.9,VALID,0,VALID,88.7849,VALID,0,VALID,25.4188,VALID,286,VALID,1.87148,
2009-12-04, 03:15:04,VALID,1001.95,VALID,0,VALID,88.8002,VALID,0,VALID,25.4577,VALID,298,VALID,0.924219,
2009-12-04, 03:16:04,VALID,1001.95,VALID,0,VALID,88.7849,VALID,0,VALID,25.4383,VALID,274,VALID,0.8125,
2009-12-04, 03:17:04,VALID,1001.91,VALID,0,VALID,88.7697,VALID,0,VALID,25.4577,VALID,350,VALID,0.429297,
2009-12-04, 03:18:04,VALID,1001.87,VALID,0,VALID,88.6323,VALID,0,VALID,25.4363,VALID,297,VALID,1.27617,
2009-12-04, 03:19:04,VALID,1001.87,VALID,0,VALID,88.5026,VALID,0,VALID,25.4772,VALID,302,VALID,0.835156,
2009-12-04, 03:20:04,VALID,1001.85,VALID,0,VALID,88.2814,VALID,0,VALID,25.4363,VALID,282,VALID,1.22344,
2009-12-04, 03:21:04,VALID,1001.87,VALID,0,VALID,88.2433,VALID,0,VALID,25.4558,VALID,286,VALID,0.886719,
2009-12-04, 03:22:04,VALID,1001.9,VALID,0,VALID,88.2127,VALID,0,VALID,25.4558,VALID,277,VALID,0.764063,
2009-12-04, 03:23:04,VALID,1001.91,VALID,0,VALID,88.0602,VALID,0,VALID,25.4772,VALID,305,VALID,1.43438,
2009-12-04, 03:24:04,VALID,1001.89,VALID,0,VALID,87.549,VALID,0,VALID,25.4967,VALID,280,VALID,1.50312,
2009-12-04, 03:25:04,VALID,1001.91,VALID,0,VALID,87.3125,VALID,0,VALID,25.5142,VALID,280,VALID,1.95313,
2009-12-04, 03:26:04,VALID,1001.96,VALID,0,VALID,87.2362,VALID,0,VALID,25.5551,VALID,294,VALID,1.70547,
2009-12-04, 03:27:04,VALID,1001.97,VALID,0,VALID,87.1981,VALID,0,VALID,25.5337,VALID,285,VALID,1.32305,
2009-12-04, 03:28:04,VALID,1001.98,VALID,0,VALID,87.076,VALID,0.100563,VALID,25.5513,VALID,302,VALID,1.34805,
2009-12-04, 03:29:04,VALID,1002,VALID,0,VALID,87.0608,VALID,0.100563,VALID,25.5513,VALID,288,VALID,2.39023,
2009-12-04, 03:30:04,VALID,1002.01,VALID,0,VALID,87.0532,VALID,0.100563,VALID,25.5727,VALID,286,VALID,1.71875,
2009-12-04, 03:31:04,VALID,1002,VALID,0,VALID,87.2744,VALID,0.100563,VALID,25.5707,VALID,291,VALID,1.0707,
2009-12-04, 03:32:04,VALID,1002.09,VALID,0,VALID,87.4193,VALID,0.100563,VALID,25.5921,VALID,286,VALID,2.32188,
2009-12-04, 03:33:04,VALID,1002.12,VALID,0,VALID,87.5872,VALID,0.100563,VALID,25.5707,VALID,287,VALID,1.46523,
2009-12-04, 03:34:04,VALID,1002.19,VALID,0,VALID,87.7932,VALID,0.100563,VALID,25.6116,VALID,282,VALID,1.43359,
2009-12-04, 03:35:04,VALID,1002.23,VALID,0,VALID,87.6329,VALID,0.100563,VALID,25.6116,VALID,298,VALID,1.92695,
2009-12-04, 03:36:04,VALID,1002.27,VALID,0,VALID,87.0913,VALID,0.100563,VALID,25.5513,VALID,295,VALID,1.96211,
2009-12-04, 03:37:04,VALID,1002.3,VALID,0,VALID,85.9393,VALID,0.100563,VALID,25.5318,VALID,303,VALID,1.82773,
2009-12-04, 03:38:04,VALID,1002.35,VALID,0,VALID,86.1987,VALID,0.100563,VALID,25.5532,VALID,248,VALID,0.710547,
2009-12-04, 03:39:04,VALID,1002.37,VALID,0,VALID,85.6189,VALID,0.100563,VALID,25.4928,VALID,279,VALID,1.83633,
2009-12-04, 03:40:04,VALID,1002.42,VALID,0,VALID,86.0004,VALID,0,VALID,25.4928,VALID,266,VALID,0.589844,
2009-12-04, 03:41:04,VALID,1002.42,VALID,0,VALID,85.7791,VALID,0.100563,VALID,25.4539,VALID,299,VALID,1.31875,
2009-12-04, 03:42:04,VALID,1002.42,VALID,0,VALID,85.7334,VALID,0.100563,VALID,25.4344,VALID,293,VALID,1.49258,
2009-12-04, 03:43:04,VALID,1002.45,VALID,0,VALID,85.7868,VALID,0,VALID,25.3993,VALID,291,VALID,1.21211,
2009-12-04, 03:44:04,VALID,1002.43,VALID,0,VALID,85.6571,VALID,0,VALID,25.3604,VALID,288,VALID,1.77227,